Home   Weather   Aurora   Past weeks

Flag for USA Past Weather in Aurora, Illinois, USA — Yesterday and Last 2 Weeks

Now
34 °F

Partly sunny.


Feels Like: 29 °F
Forecast: 27 / 37 °F
Wind: 6 mph from West

Location: Dupage Airport

Current Time: Dec 3, 2016 at 4:07:48 pm

Latest Report: Dec 3, 2016 at 2:52 pm


Visibility: 10 mi

Pressure: 30.35 "Hg

Humidity: 64%

Dew Point: 23 °F

Location of AuroraLocation

Past Weather in Aurora — Graph

°F

Aurora Temperature Yesterday

Maximum temperature yesterday: 39 °F (at 12:52 pm)
Minimum temperature yesterday: 33 °F (at 9:52 pm)
Average temperature yesterday: 36 °F

High & Low Weather Summary for the Past Weeks

 TemperatureHumidityPressure
High63 °F (Nov 18, 2:52 pm)97% (Nov 23, 6:52 pm)30.39 "Hg (Nov 23, 6:52 pm)
Low18 °F (Nov 21, 6:52 am)33% (Nov 21, 2:52 pm)29.16 "Hg (Nov 28, 8:52 pm)
Average37 °F76%30.03 "Hg
* Reported Nov 18 2:52 pm — Dec 3 2:52 pm, Aurora, Weather by CustomWeather, © 2016

Note: Actual official high and low records may vary slightly from our data, if they occured in-between our weather recording intervals... More about our weather records

Advertising

Aurora Weather History for the Previous 24 Hours

Scroll right to see more
 ConditionsComfort  
Time TempWeatherWind HumidityBarometerVisibility
2:52 pm
Sat, Dec 3
34 °FPartly sunny.6 mph64%30.35 "Hg10 mi
1:52 pm33 °FOvercast.6 mph70%30.34 "Hg10 mi
12:52 pm33 °FOvercast.9 mph66%30.37 "Hg10 mi
11:52 am33 °FOvercast.5 mph66%30.36 "Hg10 mi
10:52 am32 °FOvercast.8 mph69%30.36 "Hg10 mi
9:52 am32 °FOvercast.8 mph66%30.36 "Hg10 mi
8:52 am32 °FOvercast.8 mph66%30.35 "Hg10 mi
7:52 am32 °FOvercast.7 mph64%30.37 "Hg10 mi
6:52 am32 °FOvercast.9 mph66%30.37 "Hg10 mi
5:52 am32 °FOvercast.8 mph66%30.37 "Hg10 mi
4:52 am32 °FOvercast.9 mph66%30.37 "Hg10 mi
3:52 am32 °FOvercast.7 mph66%30.36 "Hg10 mi
1:52 am32 °FOvercast.5 mph66%30.33 "Hg10 mi
12:52 am33 °FOvercast.7 mph63%30.33 "Hg10 mi
11:52 pm
Fri, Dec 2
33 °FOvercast.7 mph66%30.32 "Hg10 mi
10:52 pm33 °FOvercast.7 mph66%30.34 "Hg10 mi
9:52 pm33 °FOvercast.7 mph63%30.34 "Hg10 mi
8:52 pm34 °FOvercast.7 mph67%30.32 "Hg10 mi
7:52 pm34 °FOvercast.8 mph67%30.31 "Hg10 mi
6:52 pm35 °FOvercast.8 mph67%30.30 "Hg10 mi
5:52 pm36 °FOvercast.10 mph67%30.27 "Hg10 mi
4:52 pm36 °FOvercast.8 mph70%30.26 "Hg10 mi
Weather by CustomWeather, © 2016

See weather overviewHow to use our weather pages